Delta, CO

3:36 PM MST on December 08, 2016 (GMT -0700)
Delta

Weather History for KAJZ - May, 2013

Change the Weather History Date:

Thursday, May 2, 2013

  Actual Average (KMTJ) Record (KMTJ)
Temperature  
Mean Temperature 44 °F -  
Max Temperature 61 °F 66 °F 79 °F (2015)
Min Temperature 28 °F 37 °F 26 °F (1997)
Degree Days  
Heating Degree Days 20    
Moisture  
Dew Point 11 °F    
Average Humidity 28    
Maximum Humidity 52    
Minimum Humidity 10    
Precipitation  
Precipitation 0.00 in - - ()
Sea Level Pressure  
Sea Level Pressure 30.48 in    
Wind  
Wind Speed 4 mph (NNE)    
Max Wind Speed 13 mph    
Max Gust Speed 22 mph    
Visibility 10 miles    
Events      
Averages and records for this station are not official NWS values.
T = Trace of Precipitation, MM = Missing Value Source: NWS Daily Summary

Daily Weather History Graph

Daily Weather History Graph

Search for Another Location

Airport or City:

Trip Planner

Search our weather history database for the weather conditions in past years. The results will help you decide how hot, cold, wet, or windy it might be!

Date:

Astronomy

May. 02, 2013 Rise Set
Actual Time 6:13 AM MDT 8:05 PM MDT
Civil Twilight 5:44 AM MDT 8:34 PM MDT
Nautical Twilight 5:09 AM MDT 9:09 PM MDT
Astronomical Twilight 4:31 AM MDT 9:47 PM MDT
Moon 1:57 AM MDT (5/2) 1:03 PM MDT (5/2)
Length of Visible Light 14h 50m
Length of Day
13h 52m
Waning Gibbous, 47% of the Moon is Illuminated
May 2
Waning Gibbous
May 9
New
May 17
First Quarter
May 24
Full
May 31
Last Quarter

Hourly Weather History & Observations

Time (MDT) Temp. Windchill Dew Point Humidity Pressure Visibility Wind Dir Wind Speed Gust Speed Precip Events Conditions
12:15 AM 44.6 °F 43.1 °F 15.3 °F 31% 30.43 in 10.0 mi East 3.5 mph - N/A   Clear
12:35 AM 43.7 °F 40.3 °F 14.9 °F 31% 30.44 in 10.0 mi NE 5.8 mph - N/A   Clear
12:55 AM 43.9 °F 39.9 °F 14.0 °F 30% 30.45 in 10.0 mi NE 6.9 mph - N/A   Clear
1:15 AM 42.3 °F 36.3 °F 13.5 °F 31% 30.45 in 10.0 mi NE 10.4 mph - N/A   Clear
1:35 AM 42.6 °F 39.0 °F 14.7 °F 32% 30.45 in 10.0 mi West 5.8 mph - N/A   Clear
1:55 AM 40.5 °F 37.3 °F 16.9 °F 39% 30.46 in 10.0 mi NW 4.6 mph - N/A   Clear
2:15 AM 39.6 °F - 16.7 °F 40% 30.46 in 10.0 mi Calm Calm - N/A   Clear
2:35 AM 37.4 °F - 16.7 °F 43% 30.47 in 10.0 mi Calm Calm - N/A   Clear
2:55 AM 37.6 °F - 17.8 °F 45% 30.47 in 10.0 mi Calm Calm - N/A   Clear
3:15 AM 35.4 °F 32.6 °F 15.1 °F 43% 30.47 in 10.0 mi ENE 3.5 mph - N/A   Clear
3:35 AM 35.2 °F - 14.9 °F 43% 30.49 in 10.0 mi Calm Calm - N/A   Clear
3:55 AM 34.2 °F 30.0 °F 15.8 °F 47% 30.49 in 10.0 mi ENE 4.6 mph - N/A   Clear
4:15 AM 34.2 °F 31.2 °F 14.9 °F 45% 30.50 in 10.0 mi NNE 3.5 mph - N/A   Clear
4:35 AM 32.9 °F - 15.4 °F 49% 30.51 in 10.0 mi Calm Calm - N/A   Clear
4:55 AM 34.0 °F - 12.7 °F 42% 30.52 in 10.0 mi Calm Calm - N/A   Clear
5:15 AM 32.7 °F 29.6 °F 13.1 °F 44% 30.52 in 10.0 mi East 3.5 mph - N/A   Clear
5:35 AM 32.2 °F - 14.2 °F 48% 30.53 in 10.0 mi Calm Calm - N/A   Clear
5:55 AM 30.4 °F 25.6 °F 14.5 °F 52% 30.53 in 10.0 mi ENE 4.6 mph - N/A   Clear
6:15 AM 28.8 °F - 12.9 °F 52% 30.54 in 10.0 mi Calm Calm - N/A   Clear
6:35 AM 30.6 °F 23.8 °F 13.8 °F 50% 30.55 in 10.0 mi NE 6.9 mph - N/A   Clear
6:55 AM 32.9 °F 29.8 °F 15.4 °F 49% 30.57 in 10.0 mi NE 3.5 mph - N/A   Clear
7:15 AM 35.1 °F 32.2 °F 15.4 °F 45% 30.57 in 10.0 mi NE 3.5 mph - N/A   Clear
7:35 AM 35.8 °F 33.0 °F 16.0 °F 45% 30.59 in 10.0 mi NE 3.5 mph - N/A   Clear
7:55 AM 36.7 °F - 16.3 °F 44% 30.59 in 10.0 mi Calm Calm - N/A   Clear
8:15 AM 37.8 °F - 16.0 °F 41% 30.59 in 10.0 mi Calm Calm - N/A   Clear
8:35 AM 39.2 °F - 14.4 °F 36% 30.59 in 10.0 mi Calm Calm - N/A   Clear
8:55 AM 41.2 °F - 14.2 °F 33% 30.59 in 10.0 mi Calm Calm - N/A   Clear
9:15 AM 42.6 °F - 14.4 °F 32% 30.59 in 10.0 mi Calm Calm - N/A   Clear
9:35 AM 43.9 °F - 15.3 °F 32% 30.59 in 10.0 mi Calm Calm - N/A   Clear
9:55 AM 44.1 °F 42.5 °F 14.9 °F 31% 30.59 in 10.0 mi NNW 3.5 mph - N/A   Clear
10:15 AM 46.2 °F 44.1 °F 14.7 °F 28% 30.59 in 10.0 mi South 4.6 mph - N/A   Clear
10:35 AM 47.1 °F - 13.5 °F 26% 30.59 in 10.0 mi WSW 5.8 mph - N/A   Clear
10:55 AM 47.5 °F - 13.1 °F 25% 30.59 in 10.0 mi Calm Calm - N/A   Clear
11:15 AM 50.2 °F - 11.8 °F 22% 30.59 in 10.0 mi WSW 8.1 mph 18.4 mph N/A   Clear
1:15 PM 54.1 °F - 6.3 °F 15% 30.53 in 10.0 mi WSW 9.2 mph - N/A   Unknown
1:35 PM 56.3 °F - 6.8 °F 14% 30.52 in 10.0 mi SSW 12.7 mph 16.1 mph N/A   Clear
1:55 PM 57.0 °F - 7.9 °F 14% 30.51 in 10.0 mi SW 9.2 mph 19.6 mph N/A   Clear
2:15 PM 56.3 °F - 8.2 °F 15% 30.50 in 10.0 mi West 6.9 mph - N/A   Clear
2:35 PM 57.9 °F - 7.5 °F 13% 30.49 in 10.0 mi Calm Calm - N/A   Clear
3:35 PM 60.8 °F - 7.7 °F 12% 30.45 in 10.0 mi WSW 8.1 mph 21.9 mph N/A   Unknown
3:55 PM 61.7 °F - 6.6 °F 11% 30.44 in 10.0 mi West 10.4 mph 21.9 mph N/A   Clear
4:15 PM 60.6 °F - 6.8 °F 12% 30.44 in 10.0 mi NW 3.5 mph - N/A   Clear
4:35 PM 60.8 °F - 3.6 °F 10% 30.44 in 10.0 mi NE 4.6 mph - N/A   Clear
4:55 PM 61.7 °F - 4.8 °F 10% 30.43 in 10.0 mi North 8.1 mph 17.3 mph N/A   Clear
5:15 PM 61.0 °F - 4.1 °F 10% 30.42 in 10.0 mi WNW 3.5 mph - N/A   Clear
5:35 PM 61.3 °F - 4.1 °F 10% 30.42 in 10.0 mi ENE 3.5 mph - N/A   Clear
5:55 PM 61.2 °F - 4.8 °F 11% 30.42 in 10.0 mi North 5.8 mph - N/A   Clear
6:15 PM 61.0 °F - 5.7 °F 11% 30.42 in 10.0 mi SSE 3.5 mph - N/A   Clear
6:35 PM 60.8 °F - 6.1 °F 11% 30.41 in 10.0 mi West 3.5 mph - N/A   Clear
6:55 PM 60.8 °F - 5.7 °F 11% 30.41 in 10.0 mi Calm Calm - N/A   Clear
7:15 PM 59.9 °F - 5.5 °F 11% 30.41 in 10.0 mi Calm Calm - N/A   Clear
7:35 PM 59.4 °F - 5.9 °F 12% 30.41 in 10.0 mi NE 6.9 mph - N/A   Clear
7:55 PM 57.2 °F - 6.6 °F 13% 30.41 in 10.0 mi NNW 9.2 mph - N/A   Clear
8:15 PM 55.2 °F - 7.2 °F 15% 30.41 in 10.0 mi North 8.1 mph - N/A   Clear
8:35 PM 54.3 °F - 7.5 °F 15% 30.41 in 10.0 mi North 10.4 mph - N/A   Clear
8:55 PM 53.4 °F - 8.8 °F 17% 30.42 in 10.0 mi North 9.2 mph - N/A   Clear
9:15 PM 52.9 °F - 7.7 °F 16% 30.42 in 10.0 mi North 11.5 mph - N/A   Clear
9:35 PM 51.6 °F - 7.9 °F 17% 30.42 in 10.0 mi North 11.5 mph - N/A   Clear
9:55 PM 50.4 °F - 9.3 °F 19% 30.42 in 10.0 mi NNE 10.4 mph - N/A   Clear
10:15 PM 48.6 °F - 10.2 °F 21% 30.42 in 10.0 mi NNE 9.2 mph - N/A   Clear
10:35 PM 46.8 °F - 13.5 °F 26% 30.43 in 10.0 mi NNE 4.6 mph - N/A   Clear
10:55 PM 45.5 °F 42.5 °F 13.6 °F 28% 30.42 in 10.0 mi NNE 5.8 mph - N/A   Clear
11:15 PM 44.6 °F 42.2 °F 12.7 °F 28% 30.42 in 10.0 mi NE 4.6 mph - N/A   Clear
11:35 PM 43.0 °F 40.3 °F 14.2 °F 31% 30.42 in 10.0 mi NNE 4.6 mph - N/A   Clear
11:55 PM 42.4 °F 38.8 °F 10.8 °F 27% 30.42 in 10.0 mi ENE 5.8 mph - N/A   Clear